EDT,Max TemperatureF,Mean TemperatureF,Min TemperatureF,Max Dew PointF,MeanDew PointF,Min DewpointF,Max Humidity, Mean Humidity, Min Humidity, Max Sea Level PressureIn, Mean Sea Level PressureIn, Min Sea Level PressureIn, Max VisibilityMiles, Mean VisibilityMiles, Min VisibilityMiles, Max Wind SpeedMPH, Mean Wind SpeedMPH, Max Gust SpeedMPH,PrecipitationIn, CloudCover, Events, WindDirDegrees
2013-5-1,76,57,38,35,31,22,70,44,18,30.50,30.44,30.37,10,10,10,10,3,22,0.00,0,,155
2013-5-2,79,60,41,41,36,28,70,47,23,30.49,30.44,30.37,10,10,10,18,4,22,T,3,,125
2013-5-3,70,55,40,40,34,24,70,49,27,30.57,30.48,30.39,10,10,10,14,5,20,0.00,0,,175
2013-5-4,75,57,38,42,35,26,96,57,17,30.42,30.33,30.23,10,10,10,16,4,21,0.00,0,,66
2013-5-5,76,59,41,33,31,30,65,42,19,30.32,30.26,30.18,10,10,10,14,6,17,0.00,0,,166
2013-5-6,76,58,39,40,28,12,82,46,9,30.27,30.19,30.11,10,10,10,13,4,17,0.00,0,,172
2013-5-7,81,61,40,44,35,27,76,46,16,30.19,30.14,30.08,10,10,10,12,2,18,0.00,0,,141
2013-5-8,76,60,43,58,50,40,93,65,36,30.23,30.16,30.09,10,10,4,24,6,30,0.06,4,Rain,151
2013-5-9,70,60,49,57,54,50,100,78,55,30.06,29.99,29.92,10,10,8,15,4,20,T,5,Rain,167
2013-5-10,71,60,49,56,52,48,100,77,53,30.02,29.96,29.87,10,5,0,13,3,16,0.02,6,Fog-Rain,69
2013-5-11,66,59,51,60,55,47,93,80,67,29.85,29.73,29.67,10,8,1,16,7,23,0.12,7,Rain,195
2013-5-12,60,51,41,46,38,22,93,63,32,29.81,29.71,29.65,10,10,10,17,7,25,T,6,,260
2013-5-13,47,42,36,33,26,22,85,64,42,30.09,29.94,29.80,10,10,10,20,7,33,0.01,7,Rain,239
2013-5-14,53,42,30,35,29,21,100,65,30,30.14,30.09,30.04,10,6,0,18,5,24,0.01,4,Fog-Rain,310
2013-5-15,63,45,27,48,34,25,93,61,29,30.09,29.88,29.66,10,8,1,22,8,31,0.05,3,Rain,171
2013-5-16,72,55,38,47,40,30,100,61,22,29.91,29.70,29.65,10,6,0,29,8,44,0.00,4,Fog,306
2013-5-17,62,51,39,41,37,34,89,63,37,30.28,30.10,29.93,10,10,10,18,7,25,0.00,5,,322
2013-5-18,70,52,34,42,34,25,100,60,19,30.36,30.31,30.27,10,8,1,13,2,22,0.00,2,,307
2013-5-19,67,54,40,54,46,37,93,69,45,30.35,30.28,30.18,10,9,5,20,6,26,0.27,4,Rain,173
2013-5-20,65,59,53,59,55,52,100,89,78,30.15,30.07,30.04,10,8,0,13,4,20,0.03,7,Fog-Rain,158
2013-5-21,72,62,52,64,57,51,100,84,68,30.05,29.96,29.90,10,6,0,24,7,30,0.62,7,Fog-Rain-Thunderstorm,123
2013-5-22,73,62,51,66,58,48,100,87,73,29.94,29.89,29.85,10,10,4,18,8,25,0.14,7,Rain-Thunderstorm,175
2013-5-23,76,68,59,64,60,57,100,79,57,29.86,29.82,29.76,10,8,1,18,8,26,0.62,7,Rain-Thunderstorm,182
2013-5-24,60,51,42,59,48,41,100,95,90,30.02,29.86,29.70,10,6,2,16,8,23,0.74,8,Rain,328
2013-5-25,43,39,34,41,37,33,100,93,85,30.01,29.95,29.90,10,6,2,21,12,31,0.97,8,Rain,344
2013-5-26,48,41,33,41,37,34,100,86,71,30.13,29.97,29.84,10,10,9,18,8,25,0.07,7,Rain,322
2013-5-27,63,47,30,38,33,28,100,66,32,30.24,30.16,30.08,10,6,0,20,6,32,0.00,2,Fog,313
2013-5-28,71,52,32,45,37,32,100,66,31,30.30,30.24,30.17,10,8,0,14,5,18,0.00,2,Fog,170
2013-5-29,60,56,51,59,53,42,100,79,57,30.17,30.09,30.01,10,6,1,15,5,21,0.45,8,Rain,176
2013-5-30,82,67,51,63,57,51,100,73,45,30.12,30.08,30.03,10,5,0,15,5,24,0.01,3,Fog,248
2013-5-31,87,71,54,64,58,54,100,70,40,30.13,30.07,29.96,10,6,0,15,5,22,0.00,1,Fog,218